Location: *
(46.1006°N, 1.8394°E)
Time: 15:40:27
(UTC+00:00)

BREEZE M DEB (TANK) - Pass Details

Date: 20 September 2019
Orbit: 282 x 14544 km, 49.5° (Epoch: 18 October)

Event Time Altitude Azimuth Distance (km) Brightness Sun altitude
Rises 20:28:17 0° 288° (WNW) 2,125 6.6 -26.0°
Reaches altitude 10° 20:29:37 10° 293° (WNW) 1,479 5.5 -26.2°
Enters shadow 20:31:51 54° 331° (NNW) 716 3.0 -26.5°
